Lid_Strength_Index
4 4 4 4 4 4 8 12 17 10 5 10 11 13 12 9 10 9 9 12 13 14 13 15 16 15 13 12 12 14 13 16 18 17 15 14 15 15 15 18 19 19 20 18
4 4 4 4 4 5 10 14 14 9 7 12 15 12 11 10 10 10 10 11 11 11 12 14 14 14 11 11 12 14 14 16 19 17 17 16 17 16 15 16 17 19 20 18
4 4 4 3 4 4 9 14 17 12 11 10 11 12 11 11 9 9 9 10 9 11 12 12 13 14 11 11 12 7 11 16 17 18 17 16 18 16 16 16 19 19 17 15
4 4 4 4 4 4 9 13 16 13 16 12 13 14 12 13 12 10 9 10 11 11 13 13 14 13 12 12 10 13 13 16 17 16 15 15 15 16 16 17 15 18 17 16
4 4 4 4 4 5 10 13 15 14 15 14 15 13 14 13 13 12 12 12 12 11 12 12 13 13 12 13 12 13 14 17 17 17 15 15 16 14 15 15 15 15 15 15
4 4 4 4 4 6 11 11 11 12 14 16 17 16 14 13 12 12 10 12 13 13 11 11 11 10 10 10 11 12 14 16 17 19 16 16 17 14 14 13 14 14 16 13
5 5 4 4 4 6 10 10 11 13 16 15 15 14 14 15 14 14 12 11 12 11 10 10 10 10 10 9 10 9 13 15 16 18 17 20 16 14 14 13 13 12 12 12
4 5 5 5 4 5 9 9 10 12 15 14 14 14 14 13 12 13 13 12 11 10 11 13 15 15 13 11 10 10 10 12 17 17 18 14 13 12 14 15 15 13 13 12
4 4 5 5 4 4 8 9 9 9 13 14 13 14 14 15 16 15 14 12 11 11 12 14 18 18 15 16 13 10 10 10 12 15 19 19 15 13 10 12 17 11 11 11
4 4 4 4 4 4 7 8 7 10 12 11 12 14 14 12 14 16 14 12 12 12 16 17 19 19 14 17 16 15 13 13 15 14 16 14 12 11 11 16 15 12 11 11
4 4 4 3 3 3 6 7 6 8 11 10 10 10 12 12 13 15 13 14 14 14 16 17 17 17 15 15 14 14 14 15 15 14 16 18 12 12 13 12 10 10 10 10
3 3 3 2 2 2 3 7 5 4 8 9 8 8 8 8 7 10 11 13 13 11 14 13 12 15 14 15 18 13 15 13 15 14 13 11 11 13 11 11 12 11 10 9
2 2 1 1 1 0 1 5 5 4 7 8 9 9 5 5 4 3 10 9 7 9 7 9 10 13 13 16 16 15 12 11 12 13 12 12 12 11 10 9 11 11 11 9
0 0 -0 -1 -1 -2 -2 3 3 3 4 9 10 5 6 3 2 3 3 4 4 5 6 7 9 11 8 11 10 11 11 10 11 11 12 11 10 10 10 10 10 10 10 9
-1 -1 -2 -2 -2 -2 -1 1 2 1 4 8 8 6 4 3 3 3 3 3 4 5 7 8 10 8 8 8 8 10 8 10 11 12 10 10 11 9 8 9 9 9 10 10
-2 -2 -2 -2 -2 -1 2 6 3 -0 0 6 9 6 6 5 3 4 4 4 4 5 7 8 7 5 8 11 12 7 7 6 6 8 8 8 8 8 7 8 8 8 8 9
-2 -2 -2 -2 -2 2 4 5 3 -0 -0 5 9 9 7 6 6 5 5 4 5 5 7 8 7 7 7 10 12 8 7 6 5 5 5 8 7 8 7 8 8 7 7 7
-2 -2 -2 -2 -2 -0 2 1 -1 -1 3 4 9 11 9 6 8 9 6 8 6 6 7 7 8 7 8 11 8 6 6 5 6 5 4 5 5 6 7 8 7 8 8 8
-2 -2 -2 1 3 4 3 -1 -1 -0 4 8 10 11 12 6 7 6 7 6 9 6 9 9 8 9 12 9 7 7 6 7 6 6 6 5 5 6 6 7 7 7 8 7
-2 1 4 7 6 0 -0 2 5 5 6 6 8 8 10 8 9 11 9 7 10 11 9 8 10 10 7 6 6 5 6 6 6 7 8 7 7 6 6 7 6 7 7 7
2 6 7 5 1 4 6 7 8 7 9 7 7 7 9 7 11 12 9 12 12 13 12 11 14 12 8 6 6 5 5 5 5 5 5 6 6 7 7 6 6 6 6 6
3 3 3 3 5 6 9 9 11 9 11 11 9 9 7 8 8 10 11 13 12 14 11 11 14 10 8 7 7 7 7 6 6 5 6 6 6 5 5 5 6 6 5 5
2 5 6 7 7 11 12 18 15 12 10 8 9 10 9 9 9 9 11 12 13 10 13 14 12 8 7 7 6 6 6 6 6 6 6 5 5 5 5 6 6 5 5 5
7 8 10 11 15 12 14 13 12 9 8 8 7 10 9 8 9 11 16 10 11 13 15 13 9 8 7 6 6 7 8 7 8 8 7 7 8 8 7 6 5 6 6 5
7 8 15 13 11 13 11 10 10 8 6 6 9 9 9 10 10 13 11 13 14 13 13 10 8 8 8 8 9 9 9 9 10 9 9 10 10 9 9 7 7 7 6 6
6 8 11 14 13 12 13 10 11 7 7 7 9 12 11 11 10 12 13 17 14 12 10 8 7 8 9 10 10 10 10 10 10 10 10 10 9 10 9 9 10 10 9 10
8 10 11 12 12 10 10 8 8 6 9 14 13 16 14 16 13 13 13 12 10 8 7 7 9 10 10 11 11 11 11 11 12 11 11 11 11 10 10 11 10 10 9 9